When you browse on this site, cookies collect data to enhance your experience and personalize the content and advertising you see.
Visit our Privacy Policy to learn more. By continuing to use the site, you agree to this use of cookies and data.
  • In Hungary
  • List of Countries
  • For 7 days
  • Water Temperature
  • Satellite Maps
  • Weather Map
  • News
  • Weather Widgets
  • user-avatar
    Login

    Hourly Weather Nijar

    Today, 24 January, Thursday

    Time Temperature Precipitation Wind Pressure Humidity
    00:00 +10°C° 0 mm 4 mps 715 mmHg 65%
    01:00 +10°C° 0 mm 4 mps 715 mmHg 64%
    02:00 +10°C° 0 mm 3 mps 715 mmHg 63%
    03:00 +10°C° 0 mm 3 mps 715 mmHg 63%
    04:00 +10°C° 0 mm 3 mps 714 mmHg 62%
    05:00 +10°C° 0 mm 3 mps 714 mmHg 62%
    06:00 +9°C° 0 mm 3 mps 714 mmHg 62%
    07:00 +10°C° 0 mm 3 mps 715 mmHg 58%
    08:00 +11°C° 0 mm 3 mps 715 mmHg 55%
    09:00 +12°C° 0 mm 3 mps 715 mmHg 52%
    10:00 +14°C° 0 mm 3 mps 716 mmHg 47%
    11:00 +16°C° 0 mm 3 mps 716 mmHg 43%
    12:00 +18°C° 0 mm 3 mps 717 mmHg 38%
    13:00 +18°C° 0 mm 3 mps 716 mmHg 37%
    14:00 +18°C° 0 mm 4 mps 716 mmHg 37%
    15:00 +18°C° 0 mm 4 mps 716 mmHg 37%
    16:00 +17°C° 0 mm 3 mps 717 mmHg 42%
    17:00 +14°C° 0 mm 3 mps 717 mmHg 47%
    18:00 +13°C° 0 mm 3 mps 717 mmHg 52%
    19:00 +13°C° 0 mm 2 mps 717 mmHg 54%
    20:00 +13°C° 0 mm 2 mps 718 mmHg 56%
    21:00 +12°C° 0 mm 2 mps 718 mmHg 58%
    22:00 +12°C° 0 mm 2 mps 719 mmHg 59%
    23:00 +10°C° 0 mm 2 mps 719 mmHg 60%

    Tomorrow, 25 January, Friday

    Time Temperature Precipitation Wind Pressure Humidity
    00:00 +10°C° 0 mm 2 mps 719 mmHg 61%
    01:00 +10°C° 0 mm 2 mps 719 mmHg 62%
    02:00 +10°C° 0 mm 3 mps 719 mmHg 62%
    03:00 +9°C° 0 mm 3 mps 719 mmHg 63%
    04:00 +9°C° 0 mm 3 mps 719 mmHg 61%
    05:00 +9°C° 0 mm 3 mps 720 mmHg 60%
    06:00 +9°C° 0 mm 2 mps 720 mmHg 58%
    07:00 +10°C° 0 mm 2 mps 720 mmHg 54%
    08:00 +11°C° 0 mm 3 mps 721 mmHg 49%
    09:00 +12°C° 0 mm 3 mps 721 mmHg 44%
    10:00 +15°C° 0 mm 2 mps 721 mmHg 41%
    11:00 +16°C° 0 mm 2 mps 722 mmHg 38%
    12:00 +18°C° 0 mm 2 mps 722 mmHg 34%
    13:00 +18°C° 0 mm 2 mps 722 mmHg 36%
    14:00 +18°C° 0 mm 3 mps 721 mmHg 38%
    15:00 +18°C° 0 mm 3 mps 721 mmHg 39%
    16:00 +17°C° 0 mm 3 mps 721 mmHg 45%
    17:00 +14°C° 0 mm 3 mps 721 mmHg 51%
    18:00 +14°C° 0 mm 2 mps 721 mmHg 57%
    19:00 +13°C° 0 mm 2 mps 721 mmHg 56%
    20:00 +13°C° 0 mm 2 mps 722 mmHg 55%
    21:00 +12°C° 0 mm 2 mps 722 mmHg 54%
    22:00 +12°C° 0 mm 2 mps 722 mmHg 53%
    23:00 +12°C° 0 mm 2 mps 722 mmHg 52%

    Day after tomorrow, 26 January, Saturday

    Time Temperature Precipitation Wind Pressure Humidity
    00:00 +10°C° 0 mm 2 mps 722 mmHg 51%
    01:00 +10°C° 0 mm 2 mps 722 mmHg 51%
    02:00 +10°C° 0 mm 2 mps 722 mmHg 51%
    03:00 +9°C° 0 mm 2 mps 722 mmHg 51%
    04:00 +9°C° 0 mm 2 mps 722 mmHg 52%
    05:00 +8°C° 0 mm 2 mps 722 mmHg 53%
    06:00 +8°C° 0 mm 2 mps 722 mmHg 55%
    07:00 +9°C° 0 mm 2 mps 723 mmHg 51%
    08:00 +12°C° 0 mm 2 mps 723 mmHg 47%
    09:00 +13°C° 0 mm 1 mps 723 mmHg 43%
    10:00 +14°C° 0 mm 2 mps 724 mmHg 43%
    11:00 +15°C° 0 mm 2 mps 724 mmHg 43%
    12:00 +15°C° 0 mm 2 mps 724 mmHg 43%
    13:00 +16°C° 0 mm 2 mps 723 mmHg 45%
    14:00 +16°C° 0 mm 3 mps 723 mmHg 47%
    15:00 +16°C° 0 mm 3 mps 722 mmHg 49%
    16:00 +14°C° 0 mm 2 mps 722 mmHg 57%
    17:00 +13°C° 0 mm 2 mps 722 mmHg 65%
    18:00 +12°C° 0 mm 1 mps 722 mmHg 74%
    19:00 +11°C° 0 mm 1 mps 722 mmHg 74%
    20:00 +11°C° 0 mm 1 mps 722 mmHg 75%
    21:00 +10°C° 0 mm 1 mps 722 mmHg 75%
    22:00 +10°C° 0 mm 1 mps 722 mmHg 72%
    23:00 +9°C° 0 mm 2 mps 722 mmHg 69%

    27 January, Sunday

    Time Temperature Precipitation Wind Pressure Humidity
    00:00 +9°C° 0 mm 2 mps 722 mmHg 66%
    01:00 +9°C° 0 mm 2 mps 721 mmHg 64%
    02:00 +9°C° 0 mm 2 mps 721 mmHg 62%
    03:00 +9°C° 0 mm 3 mps 720 mmHg 60%
    04:00 +9°C° 0 mm 3 mps 720 mmHg 58%
    05:00 +8°C° 0 mm 3 mps 720 mmHg 57%
    06:00 +8°C° 0 mm 3 mps 720 mmHg 55%
    07:00 +9°C° 0 mm 3 mps 720 mmHg 50%
    08:00 +11°C° 0 mm 3 mps 720 mmHg 44%
    09:00 +12°C° 0 mm 3 mps 720 mmHg 38%
    10:00 +14°C° 0 mm 3 mps 720 mmHg 34%
    11:00 +16°C° 0 mm 2 mps 720 mmHg 31%
    12:00 +18°C° 0 mm 2 mps 720 mmHg 27%
    13:00 +18°C° 0 mm 2 mps 719 mmHg 27%
    14:00 +19°C° 0 mm 3 mps 719 mmHg 27%
    15:00 +19°C° 0 mm 3 mps 719 mmHg 27%
    16:00 +17°C° 0 mm 3 mps 719 mmHg 31%
    17:00 +16°C° 0 mm 3 mps 719 mmHg 34%
    18:00 +13°C° 0 mm 3 mps 719 mmHg 38%
    19:00 +13°C° 0 mm 3 mps 720 mmHg 41%
    20:00 +12°C° 0 mm 4 mps 720 mmHg 44%
    21:00 +11°C° 0 mm 4 mps 721 mmHg 48%
    22:00 +11°C° 0 mm 4 mps 721 mmHg 51%
    23:00 +10°C° 0 mm 4 mps 722 mmHg 53%

    28 January, Monday

    Time Temperature Precipitation Wind Pressure Humidity
    00:00 +8°C° 0 mm 5 mps 722 mmHg 56%
    01:00 +8°C° 0 mm 4 mps 722 mmHg 55%
    02:00 +7°C° 0 mm 4 mps 722 mmHg 53%
    03:00 +7°C° 0 mm 4 mps 723 mmHg 52%
    04:00 +6°C° 0 mm 4 mps 723 mmHg 51%
    05:00 +7°C° 0 mm 3 mps 723 mmHg 51%
    06:00 +5°C° 0 mm 3 mps 723 mmHg 50%
    07:00 +7°C° 0 mm 3 mps 723 mmHg 47%
    08:00 +8°C° 0 mm 3 mps 724 mmHg 44%
    09:00 +9°C° 0 mm 3 mps 724 mmHg 41%
    10:00 +11°C° 0 mm 4 mps 724 mmHg 37%
    11:00 +12°C° 0 mm 5 mps 724 mmHg 32%
    12:00 +14°C° 0 mm 6 mps 724 mmHg 28%
    13:00 +14°C° 0 mm 6 mps 723 mmHg 29%
    14:00 +14°C° 0 mm 6 mps 723 mmHg 31%
    15:00 +14°C° 0 mm 6 mps 722 mmHg 33%
    16:00 +13°C° 0 mm 5 mps 722 mmHg 37%
    17:00 +12°C° 0 mm 4 mps 722 mmHg 41%
    18:00 +11°C° 0 mm 3 mps 722 mmHg 44%
    19:00 +10°C° 0 mm 3 mps 723 mmHg 43%
    20:00 +10°C° 0 mm 3 mps 723 mmHg 42%
    21:00 +9°C° 0 mm 2 mps 723 mmHg 41%
    22:00 +9°C° 0 mm 3 mps 723 mmHg 43%
    23:00 +8°C° 0 mm 3 mps 723 mmHg 45%

    29 January, Tuesday

    Time Temperature Precipitation Wind Pressure Humidity
    00:00 +8°C° 0 mm 3 mps 724 mmHg 47%
    01:00 +8°C° 0 mm 3 mps 723 mmHg 48%
    02:00 +8°C° 0 mm 2 mps 723 mmHg 49%
    03:00 +7°C° 0 mm 2 mps 723 mmHg 51%
    04:00 +7°C° 0 mm 2 mps 723 mmHg 50%
    05:00 +7°C° 0 mm 1 mps 723 mmHg 50%
    06:00 +7°C° 0 mm 1 mps 723 mmHg 50%
    07:00 +9°C° 0 mm 1 mps 724 mmHg 46%
    08:00 +10°C° 0 mm 1 mps 724 mmHg 41%
    09:00 +12°C° 0 mm 2 mps 725 mmHg 37%
    10:00 +13°C° 0 mm 2 mps 725 mmHg 35%
    11:00 +14°C° 0 mm 2 mps 725 mmHg 32%
    12:00 +16°C° 0 mm 2 mps 725 mmHg 29%
    13:00 +16°C° 0 mm 2 mps 725 mmHg 31%
    14:00 +16°C° 0 mm 2 mps 725 mmHg 33%
    15:00 +16°C° 0 mm 2 mps 724 mmHg 35%
    16:00 +14°C° 0 mm 2 mps 724 mmHg 42%
    17:00 +13°C° 0 mm 2 mps 724 mmHg 49%
    18:00 +11°C° 0 mm 1 mps 724 mmHg 56%
    19:00 +11°C° 0 mm 1 mps 725 mmHg 55%
    20:00 +10°C° 0 mm 1 mps 725 mmHg 55%
    21:00 +10°C° 0 mm 1 mps 725 mmHg 54%
    22:00 +10°C° 0 mm 1 mps 725 mmHg 53%
    23:00 +9°C° 0 mm 1 mps 725 mmHg 52%
    Show more